NOAA 16 DEB, 41146

Orbit data source: Space-Track

NOAA 16 DEB, 41146 is space debris in SSO originally from a launch on Thu, 21 Sep 2000 UTC launched from the Air Force Western Test Range (AFWTR). Debris objects in space refer to the collection of defunct objects orbiting the Earth. Examples of debris include non-operational satellites, rocket bodies, and fragments generated from explosions, collisions, or faulty payload assembly.

Loading next visibility...
NOAA 16 DEB details
Identifier
41146, 2000-055CD
Orbit
SSO
Last TLE update1 day ago
Origin
Flag of USNOAA (US)
ManufacturerUnknown
MissionSpacecraft
Bus & MotorUnknown
MassUnknown
Launch date (UTC)
2000-09-21 (24 years ago)
Launch vehicleUnknown
Launch site
Air Force Western Test Range (AFWTR)
Object type
Payload
Rocket body
Debris
Shape & HBRUnknown
Radar Cross SectionSmall (<0.1 m²)

Expand to show TLE details & history

TLE from 1 day ago
0 NOAA 16 DEB
1 41146U 00055CD  24338.73807339  .00022316  00000-0  77341-2 0  9994
2 41146  98.8335  72.2210 0021089 335.8824  24.1371 14.35471467465455
Epoch: 2024-12-03T17:42Z
Definitive object data (Epoch: 2024-12-03T17:42:49.54Z)
Latitude-0.00009°
Longitude93.47132°
Altitude762.671 km
Speed7.48 km/s
True Right ascension04h 48m 53s
True Declination0° 00' 00"
Sunlit
Object was in full shadow at TLE epoch
Visualization TLE readout
Latitude-53.33916°
Longitude106.87388°
Altitude780.39 km
Speed7.47 km/s
Apparent Right ascension09h 38m 19s
Apparent Declination-60° 52' 43"
Sunlit
Object is in daylight
Visualization observer readout
Local Sidereal Time00:52:21
Azimuth141.795° SSE
Elevation-53.887°
Doppler factor1
Orbital elements
Apogee altitude785.72 km
Perigee altitude755.568 km
Semi-major axis7,148.781 km
Eccentricity0.0021089
Inclination98.8335°
RAAN72.221°
Arg. of periapsis335.8824°
True anomaly24.23616°
Mean anomaly24.1371°
Eccentric anomaly24.18661°
Mean motion3.59083 °/min
BSTAR0.0077341
Orbital period100.26 mins
Loading maneuver chart data...
Loading historical data...
Loading historical data...
Loading historical data...
Loading historical data...
Loading historical data...
Loading historical data...
Loading historical data...

NOAA 16 DEB Visibility forecast

Observer location: undefined°, undefined

Span
Click to sort rows by Start time (UTC) header in descending order
Start Az.
Max El. time (UTC)
Max El. Az.
Max El.
End time (UTC)
End Az.
5 mins2024-12-05 05:01:11.732Z90.214° ESE2024-12-05 05:03:11.732Z65.204° ENE14.787°2024-12-05 05:06:11.732Z28.045° NE
8 mins2024-12-05 06:38:11.732Z178.103° S2024-12-05 06:42:11.732Z271.409° WNW42.263°2024-12-05 06:46:11.732Z338.553° N
8 mins2024-12-05 18:49:11.732Z34.86° NE2024-12-05 18:53:11.732Z111.521° ESE33.533°2024-12-05 18:57:11.732Z167.832° S
6 mins2024-12-05 20:29:11.732Z331.918° NNW2024-12-05 20:31:11.732Z302.494° NW21.54°2024-12-05 20:35:11.732Z247.077° WSW
|